This is the latest recevied weather packets stored in our database for station/object WX7FGZ-6. If no packets are shown the sender has not sent any weather packets the latest 10 day(s).
| Time | Temp. | Humidity | Pressure | Rain* | Wind** | Luminosity | Snow |
|---|---|---|---|---|---|---|---|
| 1777369583 | -5.56° C | 61% | 1015.2 hPa | 0 mm | - | - | - |
| 1777369283 | -5.56° C | 52% | 1015.1 hPa | 0 mm | - | - | - |
| 1777368983 | -5.56° C | 51% | 1015.2 hPa | 0 mm | - | - | - |
| 1777368880 | -6.11° C | 58% | 1015 hPa | 0 mm | - | - | - |
| 1777368684 | -6.11° C | 58% | 1015 hPa | 0 mm | - | - | - |
| 1777368384 | -6.11° C | 65% | 1015.2 hPa | 0 mm | - | - | - |
| 1777368084 | -6.11° C | 66% | 1015.1 hPa | 0 mm | - | - | - |
| 1777367783 | -6.11° C | 67% | 1015.1 hPa | 0 mm | - | - | - |
| 1777367483 | -6.11° C | 68% | 1015.2 hPa | 0 mm | - | - | - |
| 1777367185 | -6.11° C | 70% | 1015.1 hPa | 0 mm | - | - | - |
| 1777367084 | -6.11° C | 71% | 1015.2 hPa | 0 mm | - | - | - |
| 1777366910 | -6.11° C | 72% | 1015.2 hPa | 0 mm | - | - | - |
| 1777366884 | -6.11° C | 71% | 1015.2 hPa | 0 mm | - | - | - |
| 1777366584 | -6.11° C | 72% | 1015.2 hPa | 0 mm | - | - | - |
| 1777366284 | -6.11° C | 73% | 1015.3 hPa | 0 mm | - | - | - |
| 1777365775 | -5.56° C | 74% | 1015.2 hPa | 0 mm | - | - | - |
| 1777365228 | -5.56° C | 73% | 1015.1 hPa | 0 mm | - | - | - |
| 1777364928 | -5.56° C | 73% | 1015.2 hPa | 0 mm | - | - | - |
| 1777364628 | -6.11° C | 74% | 1015 hPa | 0 mm | - | - | - |
| 1777363996 | -6.11° C | 82% | 1015.1 hPa | 0 mm | - | - | - |
| 1777363954 | -6.11° C | 82% | 1015.1 hPa | 0 mm | - | - | - |
| 1777363655 | -6.11° C | 82% | 1015.1 hPa | 0 mm | - | - | - |
| 1777363354 | -6.11° C | 82% | 1015 hPa | 0 mm | - | - | - |
| 1777362754 | -6.11° C | 82% | 1015 hPa | 0 mm | - | - | - |
| 1777362454 | -6.11° C | 81% | 1014.9 hPa | 0 mm | - | - | - |
* Rain latest hour (hover to see other rain measurements)
** Current wind speed in m/s (hover to see current wind gust speed)